Location: Edinburgh
(55.9500°N, 3.1600°W)
Time: 11:48:27
(UTC+01:00)

AO-91 - Pass Details

Date: 03 June 2024
Orbit: 442 x 732 km, 97.6° (Epoch: 16 June)

Event Time Altitude Azimuth Distance (km) Brightness Sun altitude
Rises 23:33:42 0° 12° (NNE) 3,002 ? -8.9°
Reaches altitude 10° 23:35:54 10° 9° (N) 2,124 ? -9.0°
Maximum altitude 23:40:30 58° 291° (WNW) 829 ? -9.3°
Drops below altitude 10° 23:45:19 10° 213° (SSW) 2,219 ? -9.5°
Sets 23:47:39 0° 210° (SSW) 3,149 ? -9.6°
Enters shadow 23:47:46 - 210° (SSW) 3,195 ? -9.6°
